Location: Newark
(49.8969°N, 3.3422°E)
Time: 23:25:31
(UTC+00:00)

deb Explorer IX - Pass Details

Date: 22 January 2020
Orbit: 549 x 1099 km, 38.8° (Epoch: 20 February)

Event Time Altitude Azimuth Distance (km) Brightness Sun altitude
Rises 22:16:36 0° 217° (SW) 3,842 - -53.6°
Reaches altitude 10° 22:19:57 10° 203° (SSW) 2,926 - -54.0°
Maximum altitude 22:25:14 22° 156° (SSE) 2,185 - -54.5°
Drops below altitude 10° 22:30:29 10° 109° (ESE) 2,917 - -55.1°
Sets 22:33:48 0° 95° (E) 3,828 - -55.4°
